sat.trackr.live / text

‹ back to catalog

ONEWEB-0333

NORAD 49199 · 2021-083P

PAYLOAD ACTIVE UNKNOWN

§ Identity

Operator
Country
UK
Launch date
2021-09-14
Launch site
TYMSC
Launch vehicle
Mass (kg)
RCS (m²)

Purposes: comms

External: N2YO · Heavens-Above · Gunter

§ Orbital elements

Epoch: 2026-09-12T03:14:23.085024Z

Period
109.63 min
Inclination
87.8929°
Eccentricity
0.0001993
Mean motion
13.13470333 rev/d
Perigee alt
1,208.3 km
Apogee alt
1,211.3 km
Semi-major
7,587.9 km
B*
8.0979e-4
RAAN
302.9357°
Arg perigee
98.5338°
Mean anomaly
261.6017°
Rev number
24,232

§ Raw data

ONEWEB-03331 49199U 21083P   26255.13498941  .00000308  00000+0  80979-3 0  99912 49199  87.8929 302.9357 0001993  98.5338 261.6017 13.13470333242328

JSON: /api/v1/satellites/49199 · /tle

For live sub-satellite position, see the globe view (requires WebGL).

§ Visibility from observer

Set your observer location to see the next 7 days of passes ≥ 10°. The values pass through the URL so the page stays shareable.

No JS? Fill the form by hand. The geolocation button needs JavaScript.